Location: Unspecified
(43.3830°N, 0.0000°E)
Time: 18:50:11
(UTC+00:00)

Explorer 7 - Pass Details

Date: 29 June 2019
Orbit: 485 x 680 km, 50.3° (Epoch: 15 July)

Event Time Altitude Azimuth Distance (km) Brightness Sun altitude
Rises 12:36:28 0° 295° (WNW) 2,904 10.5 68.7°
Reaches altitude 10° 12:38:52 10° 287° (WNW) 2,024 9.9 68.6°
Maximum altitude 12:43:08 35° 221° (SW) 1,051 9.4 68.2°
Drops below altitude 10° 12:47:31 10° 156° (SSE) 2,091 10.1 67.9°
Sets 12:50:03 0° 148° (SSE) 3,013 10.7 67.7°
